Location: M.A.R.S.Observatory
(35.4031°N, 81.5481°W)
Time: 16:16:16
(UTC-05:00)

Envisat - Visible Passes

Search period start: 01 December 2021 00:00
Search period end: 11 December 2021 00:00
Orbit: 764 x 766 km, 98.2° (Epoch: 01 December)

Date Brightness Start Highest point End Pass type
(mag) Time Alt. Az. Time Alt. Az. Time Alt. Az.
01 Dec 5.8 04:11:36 10° ENE 04:14:20 14° E 04:17:04 10° SE visible
01 Dec 3.0 05:48:41 10° N 05:53:38 54° WNW 05:58:33 10° SSW visible
02 Dec 3.4 05:11:47 10° NNE 05:16:50 64° E 05:21:51 10° S visible
02 Dec 4.6 06:52:52 10° NW 06:55:15 13° WNW 06:57:38 10° W visible
02 Dec 6.2 18:05:13 10° WSW 18:07:25 13° W 18:09:37 10° WNW visible
03 Dec 5.0 04:35:35 10° NE 04:39:51 27° E 04:44:05 10° SSE visible
03 Dec 3.7 06:14:24 10° N 06:18:47 30° WNW 06:23:09 10° SW visible
04 Dec 6.1 04:01:31 10° ENE 04:02:40 11° E 04:03:49 10° ESE visible
04 Dec 2.9 05:37:03 10° N 05:42:07 71° WNW 05:47:09 10° SSW visible
05 Dec 3.9 05:00:20 10° NNE 05:05:16 48° E 05:10:09 10° S visible
05 Dec 4.3 06:40:36 10° NNW 06:43:50 17° WNW 06:47:04 10° WSW visible
05 Dec 5.9 17:52:32 10° SW 17:55:45 17° W 17:58:59 10° NW visible
06 Dec 5.4 04:24:28 10° NE 04:28:13 21° E 04:31:57 10° SE visible
06 Dec 3.4 06:02:37 10° N 06:07:18 38° WNW 06:11:58 10° SW visible
07 Dec 2.9 05:25:28 10° NNE 05:30:35 89° SE 05:35:39 10° SSW visible
08 Dec 4.4 04:48:58 10° NNE 04:53:40 37° E 04:58:20 10° SSE visible
08 Dec 4.1 06:28:34 10° NNW 06:32:24 22° WNW 06:36:14 10° WSW visible
08 Dec 5.8 17:40:14 10° SW 17:44:06 22° W 17:48:00 10° NW visible
09 Dec 5.7 04:13:32 10° NE 04:16:34 16° E 04:19:34 10° SE visible
09 Dec 3.1 05:50:55 10° N 05:55:48 50° WNW 06:00:41 10° SSW visible
10 Dec 3.2 05:13:57 10° NNE 05:19:01 69° E 05:24:04 10° S visible
10 Dec 4.6 06:55:21 10° NW 06:57:23 12° WNW 06:59:26 10° W visible
10 Dec 6.3 18:07:55 10° WSW 18:09:38 12° W 18:11:22 10° WNW visible
